Location: Jackson
(42.2460°N, 84.4010°W)
Time: 03:26:14
(UTC-05:00)

Altair - Visible Passes

Search period start: 15 February 2026 00:00
Search period end: 25 February 2026 00:00
Orbit: 1502 x 1682 km, 47.2° (Epoch: 13 February)

Date Brightness Start Highest point End Pass type
(mag) Time Alt. Az. Time Alt. Az. Time Alt. Az.
15 Feb 9.4 03:12:43 14° SE 03:13:37 14° ESE 03:17:47 10° E visible
15 Feb 8.0 05:10:46 23° SSW 05:16:33 53° SE 05:25:35 10° ENE visible
16 Feb 9.5 02:49:22 12° ESE 02:49:22 12° ESE 02:51:35 10° ESE visible
16 Feb 8.0 04:47:26 32° SSW 04:51:24 49° SE 05:00:17 10° ENE visible
16 Feb 7.5 06:46:29 10° WSW 06:55:47 79° NNW 07:05:25 10° ENE visible
17 Feb 8.1 04:23:58 39° S 04:26:15 45° SE 04:34:58 10° ENE visible
17 Feb 7.5 06:22:00 13° WSW 06:30:31 82° NNW 06:40:07 10° ENE visible
18 Feb 8.1 04:00:24 41° SSE 04:01:07 42° SE 04:09:39 10° ENE visible
18 Feb 7.4 05:58:26 21° WSW 06:05:16 85° NNW 06:14:49 10° ENE visible
19 Feb 8.3 03:36:46 38° SE 03:36:46 38° SE 03:44:19 10° ENE visible
19 Feb 7.4 05:34:48 30° WSW 05:40:01 88° NNW 05:49:32 10° ENE visible
20 Feb 8.6 03:13:03 32° ESE 03:13:03 32° ESE 03:18:58 10° ENE visible
20 Feb 7.4 05:11:04 42° WSW 05:14:47 88° SSE 05:24:16 10° ENE visible
21 Feb 8.9 02:49:17 25° E 02:49:17 25° E 02:53:36 10° ENE visible
21 Feb 7.3 04:47:17 57° SW 04:49:34 84° SSE 04:58:59 10° ENE visible
21 Feb 7.7 06:45:33 10° W 06:54:45 66° N 07:04:17 10° ENE visible
22 Feb 9.2 02:25:27 19° E 02:25:27 19° E 02:28:12 10° ENE visible
22 Feb 7.2 04:23:28 74° SSW 04:24:20 80° SSE 04:33:44 10° ENE visible
22 Feb 7.6 06:21:28 15° W 06:29:27 66° N 06:38:57 10° ENE visible
23 Feb 9.5 02:01:34 14° E 02:01:34 14° E 02:02:47 10° ENE visible
23 Feb 7.4 03:59:35 75° ESE 03:59:35 75° ESE 04:08:28 10° ENE visible
23 Feb 7.6 05:57:35 22° W 06:04:09 67° N 06:13:38 10° ENE visible
24 Feb 7.7 03:35:40 60° E 03:35:40 60° E 03:43:12 10° ENE visible
24 Feb 7.5 05:33:41 30° W 05:38:52 68° N 05:48:19 10° ENE visible
